LEMUR-2-ARTFISCHER

Last updated on Wed Feb 14 2018 16:20:53 GMT+0000 (Coordinated Universal Time)

1 42881U 17042BJ 18045.21188844 .00003244 00000-0 97610-4 0 9991 2 42881 96.9953 308.0436 0012963 181.3024 178.8189 15.34962248 32742

Satellite not in orbit

LEMUR-2-ARTFISCHER